Weather History for Newport, VT

Change the Weather History Date:

Wednesday, February 20, 2013

  Actual Average Record
Temperature  
Mean Temperature 25 °F -  
Max Temperature 32 °F 33 °F 60 °F (1981)
Min Temperature 17 °F 12 °F -21 °F (1966)
Degree Days  
Heating Degree Days 40    
Moisture  
Dew Point 18 °F    
Average Humidity 76    
Maximum Humidity 92    
Minimum Humidity 64    
Precipitation  
Precipitation 0.00 in - - ()
Sea Level Pressure  
Sea Level Pressure 29.57 in    
Wind  
Wind Speed 8 mph (WSW)    
Max Wind Speed 20 mph    
Max Gust Speed 31 mph    
Visibility 4 miles    
Events Snow    
Averages and records for this station are not official NWS values.
T = Trace of Precipitation, MM = Missing Value Source: NWS Daily Summary

Daily Weather History Graph

Daily Weather History Graph

Search for Another Location

Airport:

Trip Planner

Search our weather history database for the weather conditions in past years. The results will help you decide how hot, cold, wet, or windy it might be!

Date:

Astronomy

Feb. 20, 2013 Rise Set
Actual Time 6:41 AM EST 5:24 PM EST
Civil Twilight 6:11 AM EST 5:54 PM EST
Nautical Twilight 5:37 AM EST 6:28 PM EST
Astronomical Twilight 5:03 AM EST 7:02 PM EST
Moon 12:35 PM EST (2/20) 3:07 AM EST (2/20)
Length of Visible Light 11h 42m
Length of Day
10h 43m
Waxing Gibbous, 76% of the Moon is Illuminated
Feb 20
Waxing Gibbous
Feb 25
Full
Mar 4
Last Quarter
Mar 11
New
Mar 19
First Quarter

Hourly Weather History & Observations

Time (EST) Temp. Windchill Dew Point Humidity Pressure Visibility Wind Dir Wind Speed Gust Speed Precip Events Conditions
12:15 AM 32.0 °F - 29.8 °F 92% 29.56 in 1.0 mi Calm Calm - N/A Snow Snow
12:35 AM 31.6 °F 28.3 °F 29.7 °F 92% 29.55 in 0.8 mi WNW 3.5 mph - N/A Snow Heavy Snow
12:55 AM 31.6 °F 24.4 °F 29.5 °F 92% 29.55 in 1.0 mi NW 8.1 mph - N/A Snow Snow
1:15 AM 31.1 °F 23.1 °F 28.9 °F 92% 29.55 in 1.5 mi NW 9.2 mph - N/A Snow Light Snow
1:35 AM 29.3 °F 20.2 °F 25.0 °F 84% 29.55 in 2.5 mi WNW 10.4 mph 20.7 mph N/A Snow Light Snow
1:55 AM 28.6 °F 20.7 °F 24.6 °F 85% 29.55 in 2.5 mi WNW 8.1 mph - N/A Snow Light Snow
2:15 AM 27.5 °F 21.1 °F 23.9 °F 86% 29.55 in 2.0 mi WNW 5.8 mph - N/A Snow Light Snow
2:35 AM 27.5 °F - 23.9 °F 86% 29.55 in 5.0 mi Calm Calm - N/A Snow Light Snow
2:55 AM 27.5 °F - 23.9 °F 86% 29.54 in 5.0 mi Calm Calm - N/A Snow Light Snow
3:15 AM 27.1 °F - 23.7 °F 87% 29.54 in 2.5 mi Calm Calm - N/A Snow Light Snow
3:55 AM 27.1 °F 18.9 °F 21.6 °F 80% 29.53 in 4.0 mi SW 8.1 mph - N/A Snow Light Snow
4:15 AM 26.6 °F 21.2 °F 22.3 °F 84% 29.54 in 3.0 mi SW 4.6 mph - N/A Snow Light Snow
4:35 AM 26.6 °F 19.1 °F 21.7 °F 82% 29.54 in 3.0 mi SW 6.9 mph - N/A Snow Light Snow
4:55 AM 26.2 °F 18.6 °F 21.4 °F 82% 29.54 in 2.5 mi SW 6.9 mph - N/A Snow Light Snow
5:15 AM 26.1 °F 18.4 °F 20.7 °F 80% 29.54 in 3.0 mi SW 6.9 mph - N/A Snow Light Snow
5:35 AM 25.7 °F 17.1 °F 20.5 °F 81% 29.54 in 3.0 mi SW 8.1 mph - N/A Snow Light Snow
5:55 AM 25.5 °F 16.2 °F 20.3 °F 81% 29.54 in 2.5 mi WSW 9.2 mph - N/A Snow Light Snow
6:15 AM 25.7 °F 18.0 °F 20.1 °F 79% 29.54 in 7.0 mi WSW 6.9 mph - N/A Snow Light Snow
6:35 AM 25.7 °F 15.7 °F 19.6 °F 78% 29.54 in 7.0 mi WSW 10.4 mph - N/A Snow Light Snow
6:55 AM 25.7 °F 18.0 °F 19.4 °F 77% 29.54 in 10.0 mi WSW 6.9 mph - N/A   Overcast
7:15 AM 25.7 °F 15.7 °F 19.0 °F 76% 29.54 in 10.0 mi WSW 10.4 mph - N/A   Overcast
7:35 AM 26.1 °F 14.5 °F 18.7 °F 74% 29.54 in 10.0 mi SW 13.8 mph - N/A   Overcast
8:15 AM 26.1 °F 16.2 °F 18.1 °F 72% 29.54 in 10.0 mi WSW 10.4 mph - N/A   Overcast
8:35 AM 25.9 °F 16.6 °F 16.9 °F 69% 29.54 in 10.0 mi WSW 9.2 mph 17.3 mph N/A   Overcast
8:55 AM 25.7 °F 17.1 °F 16.0 °F 67% 29.54 in 10.0 mi WSW 8.1 mph 11.5 mph N/A   Overcast
9:35 AM 25.7 °F 17.1 °F 15.1 °F 64% 29.54 in 10.0 mi WSW 8.1 mph 18.4 mph N/A   Overcast
9:55 AM 25.5 °F 12.9 °F 15.4 °F 66% 29.54 in 10.0 mi WSW 16.1 mph 24.2 mph N/A Snow Light Snow
10:15 AM 25.3 °F 14.7 °F 15.1 °F 65% 29.54 in 10.0 mi WSW 11.5 mph 20.7 mph N/A Snow Light Snow
10:35 AM 25.3 °F 14.1 °F 15.1 °F 65% 29.54 in 10.0 mi SW 12.7 mph - N/A Snow Light Snow
10:55 AM 25.7 °F 13.5 °F 14.9 °F 64% 29.54 in 10.0 mi WSW 15.0 mph 19.6 mph N/A Snow Light Snow
11:15 AM 25.7 °F 15.1 °F 15.6 °F 66% 29.54 in 10.0 mi WSW 11.5 mph - N/A Snow Light Snow
11:35 AM 25.5 °F 13.3 °F 15.6 °F 66% 29.54 in 7.0 mi WSW 15.0 mph 19.6 mph N/A Snow Light Snow
11:55 AM 25.3 °F 14.7 °F 16.0 °F 68% 29.54 in 7.0 mi SW 11.5 mph 20.7 mph N/A Snow Light Snow
12:15 PM 25.3 °F 14.7 °F 16.0 °F 68% 29.54 in 5.0 mi SW 11.5 mph - N/A Snow Light Snow
12:35 PM 25.2 °F 15.1 °F 16.5 °F 70% 29.54 in 5.0 mi SW 10.4 mph - N/A Snow Light Snow
12:55 PM 24.8 °F 15.3 °F 16.3 °F 70% 29.54 in 3.0 mi WSW 9.2 mph - N/A Snow Light Snow
1:15 PM 24.6 °F 12.7 °F 14.2 °F 65% 29.54 in 3.0 mi West 13.8 mph 31.1 mph N/A Snow Light Snow
1:35 PM 25.2 °F 13.3 °F 14.5 °F 64% 29.54 in 7.0 mi WSW 13.8 mph 26.5 mph N/A Snow Light Snow
1:55 PM 24.6 °F 12.7 °F 15.3 °F 68% 29.54 in 5.0 mi WSW 13.8 mph 21.9 mph N/A Snow Light Snow
2:15 PM 24.4 °F 11.9 °F 14.7 °F 67% 29.54 in 5.0 mi WSW 15.0 mph 24.2 mph N/A Snow Light Snow
2:35 PM 24.4 °F 10.2 °F 15.1 °F 68% 29.54 in 4.0 mi WSW 19.6 mph 25.3 mph N/A Snow Light Snow
2:55 PM 23.9 °F 11.2 °F 14.7 °F 68% 29.55 in 3.0 mi SW 15.0 mph 28.8 mph N/A Snow Light Snow
3:15 PM 23.9 °F 12.3 °F 14.7 °F 68% 29.55 in 4.0 mi WSW 12.7 mph 21.9 mph N/A Snow Light Snow
3:35 PM 23.9 °F 12.9 °F 14.2 °F 66% 29.56 in 7.0 mi SW 11.5 mph 18.4 mph N/A Snow Light Snow
3:55 PM 23.5 °F 11.8 °F 14.2 °F 67% 29.56 in 4.0 mi SW 12.7 mph 18.4 mph N/A Snow Light Snow
4:15 PM 23.2 °F 11.4 °F 14.7 °F 70% 29.57 in 4.0 mi SW 12.7 mph 20.7 mph N/A Snow Light Snow
4:35 PM 23.0 °F 12.4 °F 14.9 °F 71% 29.57 in 2.5 mi WSW 10.4 mph 21.9 mph N/A Snow Light Snow
4:55 PM 22.8 °F 12.2 °F 15.6 °F 74% 29.58 in 2.5 mi SW 10.4 mph - N/A Snow Light Snow
5:15 PM 22.6 °F 11.9 °F 16.3 °F 77% 29.59 in 2.0 mi SW 10.4 mph 17.3 mph N/A Snow Light Snow
5:35 PM 22.1 °F 10.6 °F 16.9 °F 80% 29.59 in 2.0 mi SW 11.5 mph 18.4 mph N/A Snow Light Snow
5:55 PM 22.1 °F 12.8 °F 16.7 °F 80% 29.60 in 2.0 mi WSW 8.1 mph 18.4 mph N/A Snow Light Snow
6:15 PM 22.1 °F 12.8 °F 16.3 °F 79% 29.60 in 3.0 mi WSW 8.1 mph 19.6 mph N/A Snow Light Snow
6:35 PM 22.1 °F 12.0 °F 16.5 °F 79% 29.61 in 2.5 mi WSW 9.2 mph - N/A Snow Light Snow
6:55 PM 21.9 °F 10.4 °F 17.1 °F 82% 29.61 in 1.5 mi WSW 11.5 mph 16.1 mph N/A Snow Light Snow
7:15 PM 22.1 °F 9.5 °F 16.7 °F 80% 29.61 in 2.5 mi WSW 13.8 mph 21.9 mph N/A Snow Light Snow
7:35 PM 21.9 °F 9.2 °F 16.3 °F 79% 29.60 in 2.5 mi WSW 13.8 mph 19.6 mph N/A Snow Light Snow
8:15 PM 21.2 °F 9.5 °F 16.3 °F 82% 29.61 in 1.8 mi WSW 11.5 mph 19.6 mph N/A Snow Light Snow
8:35 PM 21.2 °F 10.9 °F 15.8 °F 80% 29.62 in 2.0 mi SW 9.2 mph 19.6 mph N/A Snow Light Snow
8:55 PM 21.2 °F 13.6 °F 16.5 °F 82% 29.62 in 1.5 mi WSW 5.8 mph 16.1 mph N/A Snow Light Snow
9:15 PM 21.2 °F 11.7 °F 16.7 °F 83% 29.62 in 1.2 mi WSW 8.1 mph - N/A Snow Light Snow
9:35 PM 21.2 °F 10.9 °F 16.7 °F 83% 29.63 in 1.2 mi West 9.2 mph 21.9 mph N/A Snow Light Snow
9:55 PM 21.2 °F 12.6 °F 16.7 °F 83% 29.63 in 1.2 mi West 6.9 mph 16.1 mph N/A Snow Light Snow
10:15 PM 20.8 °F 13.2 °F 16.0 °F 81% 29.64 in 1.5 mi SW 5.8 mph - N/A Snow Light Snow
10:35 PM 19.9 °F 13.4 °F 15.1 °F 81% 29.65 in 1.8 mi SW 4.6 mph - N/A Snow Light Snow
10:55 PM 19.6 °F 11.7 °F 14.2 °F 80% 29.66 in 2.0 mi South 5.8 mph - N/A Snow Light Snow
11:35 PM 18.3 °F 8.2 °F 12.0 °F 76% 29.67 in 2.0 mi SW 8.1 mph - N/A Snow Light Snow
11:55 PM 17.6 °F 3.2 °F 11.5 °F 77% 29.68 in 2.5 mi West 15.0 mph - N/A Snow Light Snow